When you browse on this site, cookies collect data to enhance your experience and personalize the content and advertising you see.
Visit our Privacy Policy to learn more. By continuing to use the site, you agree to this use of cookies and data.

Hourly Weather Igls

Today, 2 July, Thursday

Time Temperature Precipitation Wind Pressure Humidity
00:00 +15°C° 0 mm 1 mps 683 mmHg 87%
01:00 +15°C° 0 mm 1 mps 683 mmHg 83%
02:00 +14°C° 0 mm 1 mps 683 mmHg 84%
03:00 +14°C° 0 mm 1 mps 683 mmHg 84%
04:00 +14°C° 0 mm 1 mps 682 mmHg 85%
05:00 +16°C° 0 mm 1 mps 683 mmHg 82%
06:00 +18°C° 0 mm 1 mps 683 mmHg 79%
07:00 +20°C° 0 mm 1 mps 684 mmHg 76%
08:00 +20°C° 0.2 mm 1 mps 684 mmHg 77%
09:00 +21°C° 0.2 mm 1 mps 684 mmHg 78%
10:00 +21°C° 0.2 mm 1 mps 683 mmHg 78%
11:00 +22°C° 0.4 mm 1 mps 684 mmHg 73%
12:00 +24°C° 0.4 mm 1 mps 684 mmHg 68%
13:00 +24°C° 0 mm 2 mps 684 mmHg 70%
14:00 +24°C° 1.7 mm 2 mps 684 mmHg 75%
15:00 +23°C° 1.7 mm 2 mps 684 mmHg 80%
16:00 +23°C° 1.7 mm 1 mps 683 mmHg 85%
17:00 +22°C° 1.5 mm 1 mps 683 mmHg 89%
18:00 +21°C° 1.5 mm 1 mps 683 mmHg 92%
19:00 +20°C° 1.5 mm 1 mps 683 mmHg 95%
20:00 +19°C° 2.7 mm 1 mps 684 mmHg 96%
21:00 +18°C° 2.7 mm 1 mps 684 mmHg 97%
22:00 +18°C° 2.7 mm 1 mps 684 mmHg 98%
23:00 +16°C° 3.3 mm 1 mps 684 mmHg 98%

Tomorrow, 3 July, Friday

Time Temperature Precipitation Wind Pressure Humidity
00:00 +16°C° 3.3 mm 1 mps 684 mmHg 98%
01:00 +15°C° 3.3 mm 1 mps 684 mmHg 98%
02:00 +15°C° 1.3 mm 1 mps 684 mmHg 98%
03:00 +15°C° 1.3 mm 1 mps 684 mmHg 98%
04:00 +15°C° 1.3 mm 1 mps 684 mmHg 98%
05:00 +15°C° 0.7 mm 1 mps 684 mmHg 98%
06:00 +15°C° 0.7 mm 1 mps 685 mmHg 97%
07:00 +15°C° 0.7 mm 1 mps 685 mmHg 97%
08:00 +15°C° 0.2 mm 1 mps 685 mmHg 96%
09:00 +15°C° 0.2 mm 1 mps 685 mmHg 94%
10:00 +16°C° 0.2 mm 2 mps 685 mmHg 93%
11:00 +17°C° 0.2 mm 2 mps 686 mmHg 88%
12:00 +18°C° 0.2 mm 2 mps 686 mmHg 82%
13:00 +19°C° 0.2 mm 2 mps 686 mmHg 77%
14:00 +19°C° 0.4 mm 2 mps 686 mmHg 79%
15:00 +19°C° 0.4 mm 2 mps 686 mmHg 80%
16:00 +19°C° 0.4 mm 2 mps 686 mmHg 82%
17:00 +18°C° 0.5 mm 2 mps 686 mmHg 86%
18:00 +18°C° 0.5 mm 1 mps 686 mmHg 90%
19:00 +18°C° 0.5 mm 1 mps 686 mmHg 94%
20:00 +16°C° 0.1 mm 1 mps 686 mmHg 95%
21:00 +15°C° 0.1 mm 1 mps 686 mmHg 96%
22:00 +14°C° 0.1 mm 1 mps 687 mmHg 97%
23:00 +14°C° 0.1 mm 1 mps 687 mmHg 97%

Day after tomorrow, 4 July, Saturday

Time Temperature Precipitation Wind Pressure Humidity
00:00 +14°C° 0.1 mm 1 mps 687 mmHg 97%
01:00 +15°C° 0.1 mm 1 mps 687 mmHg 98%
02:00 +14°C° 0.1 mm 1 mps 687 mmHg 98%
03:00 +14°C° 0.1 mm 1 mps 687 mmHg 98%
04:00 +13°C° 0.1 mm 0 mps 687 mmHg 98%
05:00 +15°C° 0 mm 1 mps 687 mmHg 96%
06:00 +15°C° 0 mm 1 mps 687 mmHg 95%
07:00 +16°C° 0 mm 1 mps 687 mmHg 94%
08:00 +18°C° 0.1 mm 1 mps 687 mmHg 88%
09:00 +19°C° 0.1 mm 1 mps 688 mmHg 82%
10:00 +21°C° 0.1 mm 1 mps 688 mmHg 76%
11:00 +21°C° 0.1 mm 1 mps 688 mmHg 73%
12:00 +21°C° 0.1 mm 1 mps 688 mmHg 71%
13:00 +21°C° 0.1 mm 2 mps 688 mmHg 68%
14:00 +21°C° 0.1 mm 2 mps 688 mmHg 66%
15:00 +23°C° 0.1 mm 2 mps 687 mmHg 65%
16:00 +23°C° 0.1 mm 2 mps 687 mmHg 63%
17:00 +21°C° 0.1 mm 2 mps 687 mmHg 69%
18:00 +20°C° 0.1 mm 2 mps 687 mmHg 75%
19:00 +21°C° 0.1 mm 1 mps 687 mmHg 80%
20:00 +19°C° 0 mm 1 mps 687 mmHg 86%
21:00 +16°C° 0 mm 1 mps 687 mmHg 91%
22:00 +14°C° 0 mm 1 mps 687 mmHg 96%
23:00 +14°C° 0 mm 1 mps 687 mmHg 96%

5 July, Sunday

Time Temperature Precipitation Wind Pressure Humidity
00:00 +14°C° 0 mm 1 mps 687 mmHg 96%
01:00 +14°C° 0 mm 1 mps 687 mmHg 96%
02:00 +14°C° 0 mm 1 mps 687 mmHg 96%
03:00 +14°C° 0 mm 1 mps 687 mmHg 95%
04:00 +14°C° 0 mm 1 mps 687 mmHg 95%
05:00 +15°C° 0 mm 1 mps 687 mmHg 90%
06:00 +18°C° 0 mm 1 mps 688 mmHg 85%
07:00 +19°C° 0 mm 1 mps 688 mmHg 80%
08:00 +20°C° 0 mm 1 mps 688 mmHg 74%
09:00 +21°C° 0 mm 1 mps 688 mmHg 69%
10:00 +23°C° 0 mm 1 mps 688 mmHg 63%
11:00 +24°C° 0 mm 1 mps 688 mmHg 59%
12:00 +25°C° 0 mm 2 mps 688 mmHg 55%
13:00 +26°C° 0 mm 2 mps 688 mmHg 51%
14:00 +26°C° 0 mm 2 mps 688 mmHg 52%
15:00 +26°C° 0 mm 2 mps 688 mmHg 52%
16:00 +26°C° 0 mm 2 mps 687 mmHg 53%
17:00 +25°C° 0 mm 2 mps 687 mmHg 60%
18:00 +24°C° 0 mm 1 mps 687 mmHg 68%
19:00 +23°C° 0 mm 1 mps 687 mmHg 75%
20:00 +21°C° 0 mm 1 mps 687 mmHg 82%
21:00 +19°C° 0 mm 1 mps 686 mmHg 88%
22:00 +15°C° 0 mm 0 mps 686 mmHg 94%
23:00 +14°C° 0 mm 0 mps 686 mmHg 95%

6 July, Monday

Time Temperature Precipitation Wind Pressure Humidity
00:00 +14°C° 0 mm 0 mps 686 mmHg 95%
01:00 +14°C° 0 mm 0 mps 686 mmHg 95%
02:00 +14°C° 0 mm 0 mps 685 mmHg 95%
03:00 +13°C° 0 mm 0 mps 685 mmHg 95%
04:00 +13°C° 0 mm 0 mps 685 mmHg 95%
05:00 +15°C° 0 mm 0 mps 685 mmHg 90%
06:00 +17°C° 0 mm 0 mps 685 mmHg 85%
07:00 +19°C° 0 mm 0 mps 685 mmHg 81%
08:00 +22°C° 0 mm 1 mps 685 mmHg 76%
09:00 +24°C° 0 mm 1 mps 686 mmHg 71%
10:00 +25°C° 0 mm 1 mps 686 mmHg 67%
11:00 +25°C° 0.2 mm 1 mps 685 mmHg 71%
12:00 +24°C° 0.2 mm 2 mps 685 mmHg 74%
13:00 +24°C° 0.2 mm 2 mps 684 mmHg 78%
14:00 +23°C° 0.6 mm 2 mps 684 mmHg 84%
15:00 +21°C° 0.6 mm 2 mps 684 mmHg 90%
16:00 +19°C° 0.6 mm 2 mps 684 mmHg 95%
17:00 +18°C° 1.7 mm 2 mps 684 mmHg 96%
18:00 +17°C° 1.7 mm 2 mps 684 mmHg 97%
19:00 +16°C° 1.7 mm 3 mps 684 mmHg 98%
20:00 +16°C° 2.8 mm 3 mps 684 mmHg 98%
21:00 +14°C° 2.8 mm 3 mps 684 mmHg 98%
22:00 +13°C° 2.8 mm 3 mps 685 mmHg 98%
23:00 +12°C° 1.8 mm 3 mps 685 mmHg 98%

7 July, Tuesday

Time Temperature Precipitation Wind Pressure Humidity
00:00 +12°C° 1.8 mm 2 mps 685 mmHg 98%
01:00 +10°C° 1.8 mm 2 mps 685 mmHg 98%
02:00 +10°C° 0.9 mm 2 mps 685 mmHg 98%
03:00 +10°C° 0.9 mm 2 mps 686 mmHg 98%
04:00 +10°C° 0.9 mm 1 mps 686 mmHg 97%
05:00 +11°C° 0.1 mm 1 mps 686 mmHg 96%
06:00 +11°C° 0.1 mm 1 mps 686 mmHg 94%
07:00 +12°C° 0.1 mm 2 mps 687 mmHg 92%
08:00 +13°C° 0 mm 2 mps 687 mmHg 81%
09:00 +15°C° 0 mm 2 mps 687 mmHg 69%
10:00 +17°C° 0 mm 2 mps 687 mmHg 58%
11:00 +18°C° 0 mm 2 mps 687 mmHg 53%
12:00 +19°C° 0 mm 2 mps 687 mmHg 49%
13:00 +20°C° 0 mm 2 mps 687 mmHg 44%
14:00 +20°C° 0 mm 3 mps 687 mmHg 46%
15:00 +20°C° 0 mm 3 mps 687 mmHg 48%
16:00 +20°C° 0 mm 3 mps 687 mmHg 50%
17:00 +18°C° 0 mm 3 mps 687 mmHg 57%
18:00 +17°C° 0 mm 2 mps 687 mmHg 65%
19:00 +16°C° 0 mm 2 mps 687 mmHg 72%
20:00 +14°C° 0 mm 2 mps 687 mmHg 80%
21:00 +12°C° 0 mm 1 mps 687 mmHg 88%
22:00 +10°C° 0 mm 1 mps 687 mmHg 96%
23:00 +10°C° 0 mm 1 mps 687 mmHg 95%
Show more